Date String (YYYY-MM-DD hh:mm:ss) UTC,Instrument flags,Ambient pressure (hPa),Sample flow (lpm),Bypass flow (lpm),Sample temperature (°C),Ambient temperature (°C),ASC tube jacket temperature (°C),LED temperature (°C),Box temperature (°C),Sample RH (%),Span deviation,Mass concentration (μg/m³),Mass concentration (μg/m³),Mass concentration (μg/m³)
DateTimeUTC,F1_M11,P_M11,Q1_M11,Q2_M11,T1_M11,T2_M11,T3_M11,T4_M11,T5_M11,U1_M11,ZSPAN_M11,X0_M11,X2_M11,X1_M11
2022-11-29 16:00:00,,0817.5,4.99,0.00,22.6,21.2,00.0,31.5,24.3,10.4,0000.0,0002.56,0001.11,0000.91
2022-11-29 16:01:00,,0817.5,5.00,0.00,22.6,21.1,00.0,31.5,24.3,10.4,0000.0,0001.76,0001.11,0000.91
2022-11-29 16:02:00,,0817.5,4.99,0.00,22.5,21.1,00.0,31.5,24.3,10.4,0000.0,0002.31,0001.10,0000.90
2022-11-29 16:03:00,,0817.5,5.00,0.00,22.5,21.1,00.0,31.5,24.3,10.4,0000.0,0002.43,0001.13,0000.89
2022-11-29 16:04:00,,0817.5,5.00,0.00,22.5,21.0,00.0,31.5,24.3,10.4,0000.0,0002.42,0001.13,0000.88
2022-11-29 16:05:00,,0817.6,5.01,0.00,22.5,21.2,00.0,31.4,24.3,10.3,0000.0,0002.27,0001.10,0000.86
2022-11-29 16:06:00,,0817.6,5.00,0.00,22.6,22.1,00.0,31.4,24.5,10.2,0000.0,0002.41,0001.12,0000.85
2022-11-29 16:07:00,,0817.6,4.99,0.00,22.7,22.7,00.0,31.4,24.6,10.2,0000.0,0002.38,0001.08,0000.82
2022-11-29 16:08:00,,0817.7,5.01,0.00,22.7,22.4,00.0,31.5,24.7,10.2,0000.0,0002.32,0001.05,0000.81
2022-11-29 16:09:00,,0817.7,5.00,0.00,22.7,22.1,00.0,31.5,24.6,10.1,0000.0,0002.47,0001.05,0000.79
2022-11-29 16:10:00,,0817.7,5.00,0.00,22.7,21.9,00.0,31.5,24.5,10.1,0000.0,0002.51,0001.04,0000.77
2022-11-29 16:11:00,,0817.8,5.00,0.00,22.7,21.7,00.0,31.5,24.5,10.1,0000.0,0002.48,0001.03,0000.76
2022-11-29 16:12:00,,0817.8,5.01,0.00,22.7,21.6,00.0,31.5,24.5,10.1,0000.0,0002.46,0001.01,0000.76
2022-11-29 16:13:00,,0817.8,5.00,0.00,22.6,21.5,00.0,31.5,24.5,10.2,0000.0,0002.09,0001.01,0000.75
2022-11-29 16:14:00,,0817.9,5.00,0.00,22.6,21.4,00.0,31.5,24.5,10.2,0000.0,0001.90,0001.02,0000.77
2022-11-29 16:15:00,,0818.0,5.00,0.00,22.6,21.4,00.0,31.5,24.4,10.2,0000.0,0001.86,0001.01,0000.77
2022-11-29 16:16:00,,0817.9,4.99,0.00,22.6,21.3,00.0,31.5,24.4,10.2,0000.0,0001.86,0001.01,0000.78
2022-11-29 16:17:00,,0817.9,4.99,0.00,22.6,21.3,00.0,31.5,24.4,10.2,0000.0,0001.90,0001.04,0000.79
2022-11-29 16:18:00,,0818.0,5.00,0.00,22.6,21.3,00.0,31.5,24.4,10.2,0000.0,0001.88,0001.07,0000.80
2022-11-29 16:19:00,,0818.0,5.00,0.00,22.6,21.2,00.0,31.5,24.4,10.2,0000.0,0001.77,0001.06,0000.81
2022-11-29 16:20:00,,0818.0,5.00,0.00,22.6,21.2,00.0,31.5,24.4,10.2,0000.0,0001.84,0001.10,0000.82
2022-11-29 16:21:00,,0818.0,5.00,0.00,22.6,21.2,00.0,31.5,24.4,10.2,0000.0,0001.79,0001.11,0000.84
2022-11-29 16:22:00,,0818.0,5.00,0.00,22.6,21.2,00.0,31.5,24.4,10.2,0000.0,0001.71,0001.13,0000.85
2022-11-29 16:23:00,,0818.0,5.01,0.00,22.6,21.2,00.0,31.5,24.3,10.2,0000.0,0001.67,0001.13,0000.87
2022-11-29 16:24:00,,0818.0,5.00,0.00,22.5,21.1,00.0,31.5,24.3,10.2,0000.0,0001.75,0001.17,0000.88
2022-11-29 16:25:00,,0818.1,5.00,0.00,22.5,21.2,00.0,31.5,24.3,10.2,0000.0,0001.79,0001.20,0000.90
2022-11-29 16:26:00,,0818.2,4.99,0.00,22.6,21.8,00.0,31.4,24.4,10.2,0000.0,0001.76,0001.19,0000.90
2022-11-29 16:27:00,,0818.2,4.99,0.00,22.7,22.6,00.0,31.4,24.6,10.1,0000.0,0001.72,0001.18,0000.90
2022-11-29 16:28:00,,0818.2,5.01,0.00,22.7,22.6,00.0,31.5,24.7,10.0,0000.0,0001.79,0001.19,0000.91
2022-11-29 16:29:00,,0818.2,4.99,0.00,22.7,22.3,00.0,31.5,24.7,10.0,0000.0,0001.78,0001.17,0000.91
2022-11-29 16:30:00,,0818.2,5.00,0.00,22.7,22.0,00.0,31.5,24.6,10.0,0000.0,0001.84,0001.19,0000.92
2022-11-29 16:31:00,,0818.2,5.01,0.00,22.7,21.8,00.0,31.6,24.6,10.0,0000.0,0001.85,0001.20,0000.94
2022-11-29 16:32:00,,0818.1,5.00,0.00,22.7,21.7,00.0,31.6,24.6,10.0,0000.0,0001.82,0001.20,0000.95
2022-11-29 16:33:00,,0818.1,4.98,0.00,22.7,21.6,00.0,31.6,24.6,10.0,0000.0,0001.83,0001.21,0000.97
2022-11-29 16:34:00,,0818.1,5.00,0.00,22.7,21.5,00.0,31.6,24.5,10.0,0000.0,0001.91,0001.24,0000.97
2022-11-29 16:35:00,,0818.1,5.00,0.00,22.7,21.5,00.0,31.6,24.5,10.0,0000.0,0001.92,0001.23,0000.98
2022-11-29 16:36:00,,0818.1,4.99,0.00,22.7,21.4,00.0,31.6,24.5,10.0,0000.0,0001.98,0001.25,0000.98
2022-11-29 16:37:00,,0818.1,5.02,0.00,22.7,21.4,00.0,31.6,24.5,10.0,0000.0,0002.06,0001.25,0000.99
2022-11-29 16:38:00,,0818.1,5.00,0.00,22.7,21.3,00.0,31.6,24.5,10.0,0000.0,0002.18,0001.31,0001.01
2022-11-29 16:39:00,,0818.0,4.98,0.00,22.7,21.3,00.0,31.6,24.5,10.0,0000.0,0002.21,0001.32,0001.01
2022-11-29 16:40:00,,0818.0,5.02,0.00,22.6,21.3,00.0,31.5,24.4,10.0,0000.0,0002.17,0001.32,0001.03
2022-11-29 16:41:00,,0818.0,5.00,0.00,22.6,21.2,00.0,31.5,24.4,10.0,0000.0,0002.15,0001.32,0001.04
2022-11-29 16:42:00,,0818.0,4.99,0.00,22.6,21.2,00.0,31.5,24.4,10.0,0000.0,0002.20,0001.34,0001.04
2022-11-29 16:43:00,,0818.0,4.99,0.00,22.6,21.2,00.0,31.5,24.4,10.1,0000.0,0002.26,0001.35,0001.04
2022-11-29 16:44:00,,0818.0,5.00,0.00,22.6,21.2,00.0,31.5,24.4,10.1,0000.0,0002.38,0001.39,0001.05
2022-11-29 16:45:00,,0818.0,5.00,0.00,22.6,21.1,00.0,31.5,24.4,10.1,0000.0,0002.39,0001.40,0001.06
2022-11-29 16:46:00,,0818.0,5.01,0.00,22.6,21.1,00.0,31.5,24.4,10.1,0000.0,0002.30,0001.38,0001.06
2022-11-29 16:47:00,,0818.1,4.99,0.00,22.5,21.1,00.0,31.5,24.3,10.0,0000.0,0002.26,0001.37,0001.06
2022-11-29 16:48:00,,0818.2,4.99,0.00,22.5,21.1,00.0,31.5,24.3,09.9,0000.0,0002.15,0001.35,0001.05
2022-11-29 16:49:00,,0818.2,5.00,0.00,22.5,21.1,00.0,31.5,24.3,10.0,0000.0,0002.07,0001.32,0001.06
2022-11-29 16:50:00,,0818.3,5.01,0.00,22.6,21.8,00.0,31.4,24.5,10.1,0000.0,0002.00,0001.31,0001.06
2022-11-29 16:51:00,,0818.3,4.99,0.00,22.7,22.7,00.0,31.4,24.7,10.1,0000.0,0002.05,0001.34,0001.07
2022-11-29 16:52:00,,0818.4,5.00,0.00,22.7,22.6,00.0,31.5,24.7,10.1,0000.0,0002.14,0001.38,0001.08
2022-11-29 16:53:00,,0818.3,5.00,0.00,22.7,22.2,00.0,31.5,24.6,10.2,0000.0,0002.08,0001.37,0001.09
2022-11-29 16:54:00,,0818.3,4.99,0.00,22.7,21.9,00.0,31.5,24.6,10.2,0000.0,0002.00,0001.35,0001.10
2022-11-29 16:55:00,,0818.4,5.00,0.00,22.7,21.7,00.0,31.5,24.5,10.1,0000.0,0001.88,0001.31,0001.10
2022-11-29 16:56:00,,0818.4,5.00,0.00,22.7,21.5,00.0,31.6,24.5,10.1,0000.0,0001.93,0001.33,0001.12
2022-11-29 16:57:00,,0818.4,5.00,0.00,22.6,21.2,00.0,31.6,24.5,10.1,0000.0,0002.06,0001.36,0001.13
2022-11-29 16:58:00,,0818.4,5.00,0.00,22.6,21.1,00.0,31.6,24.4,10.1,0000.0,0003.31,0001.36,0001.14
2022-11-29 16:59:00,,0818.4,5.00,0.00,22.6,20.9,00.0,31.6,24.3,10.1,0000.0,0003.40,0001.40,0001.15
